| time (UTC) | temp C | wind direction | speed KPH | gust KPH | rain 1hr cm | rain 24hr cm | rain mn cm | humidity % | barometer mb |
| 20260831084531 | 15 | 152 | 0.0 | 0.0 | 0.00 | 0.00 | 0.00 | 95 | 1020.4 |
| 20260831083037 | 16 | 152 | 0.0 | 0.0 | 0.00 | 0.00 | 0.00 | 94 | 1020.5 |
| 20260831081509 | 16 | 152 | 0.0 | 0.0 | 0.00 | 0.00 | 0.00 | 94 | 1020.5 |
| 20260831080006 | 16 | 152 | 0.0 | 0.0 | 0.00 | 0.00 | 0.00 | 94 | 1020.4 |
| 20260831074548 | 16 | 152 | 0.0 | 0.0 | 0.00 | 0.00 | 0.00 | 93 | 1020.5 |
| 20260831073045 | 16 | 152 | 0.0 | 0.0 | 0.00 | 0.00 | 0.00 | 93 | 1020.5 |
| 20260831071524 | 17 | 152 | 0.0 | 0.0 | 0.00 | 0.00 | 0.00 | 93 | 1020.1 |
| 20260831070026 | 17 | 152 | 0.0 | 0.0 | 0.00 | 0.00 | 0.00 | 92 | 1020.3 |
| 20260831064504 | 17 | 152 | 0.0 | 0.0 | 0.00 | 0.00 | 0.00 | 90 | 1020.1 |
| 20260831063101 | 18 | 170 | 0.0 | 1.6 | 0.00 | 0.00 | 0.00 | 89 | 1019.9 |
| 20260831061542 | 18 | 262 | 0.0 | 6.4 | 0.00 | 0.00 | 0.00 | 89 | 1019.9 |
| 20260831060042 | 18 | 281 | 0.0 | 3.2 | 0.00 | 0.00 | 0.00 | 91 | 1019.6 |
| 20260831054522 | 18 | 272 | 0.0 | 1.6 | 0.00 | 0.00 | 0.00 | 90 | 1019.6 |
| 20260831053020 | 19 | 272 | 0.0 | 1.6 | 0.00 | 0.00 | 0.00 | 90 | 1019.6 |
| 20260831051600 | 19 | 177 | 0.0 | 0.0 | 0.00 | 0.00 | 0.00 | 91 | 1019.6 |
| 20260831050057 | 20 | 232 | 0.0 | 1.6 | 0.00 | 0.00 | 0.00 | 90 | 1019.6 |
| 20260831044538 | 20 | 236 | 0.0 | 9.7 | 0.00 | 0.00 | 0.00 | 91 | 1019.7 |
| 20260831043034 | 21 | 75 | 0.0 | 0.0 | 0.00 | 0.00 | 0.00 | 93 | 1019.6 |
| 20260831041555 | 21 | 75 | 0.0 | 0.0 | 0.00 | 0.00 | 0.00 | 93 | 1019.6 |
| 20260831040021 | 21 | 74 | 0.0 | 0.0 | 0.00 | 0.00 | 0.00 | 92 | 1019.6 |
| 20260831034520 | 21 | 74 | 0.0 | 0.0 | 0.00 | 0.00 | 0.00 | 92 | 1019.5 |
| 20260831033023 | 21 | 74 | 0.0 | 1.6 | 0.00 | 0.00 | 0.00 | 91 | 1019.6 |
| 20260831031519 | 21 | 290 | 0.0 | 3.2 | 0.00 | 0.00 | 0.00 | 91 | 1019.7 |
| 20260831030018 | 21 | 328 | 0.0 | 6.4 | 0.00 | 0.00 | 0.00 | 89 | 1019.7 |
| 20260831024517 | 22 | 249 | 1.6 | 9.7 | 0.00 | 0.00 | 0.00 | 88 | 1019.7 |
| 20260831023018 | 22 | 266 | 1.6 | 6.4 | 0.00 | 0.00 | 0.00 | 88 | 1019.7 |
| 20260831021509 | 22 | 273 | 1.6 | 8.0 | 0.00 | 0.00 | 0.00 | 89 | 1019.4 |
| 20260831020004 | 22 | 326 | 0.0 | 4.8 | 0.00 | 0.00 | 0.00 | 91 | 1019.5 |
| 20260831014506 | 22 | 149 | 0.0 | 3.2 | 0.00 | 0.00 | 0.00 | 91 | 1019.3 |
| 20260831013003 | 22 | 101 | 0.0 | 1.6 | 0.00 | 0.00 | 0.00 | 91 | 1019.2 |
| 20260831011505 | 22 | 53 | 0.0 | 1.6 | 0.00 | 0.00 | 0.00 | 90 | 1019.1 |
| 20260831010001 | 22 | 146 | 0.0 | 0.0 | 0.00 | 0.00 | 0.00 | 89 | 1019.3 |
| 20260831004600 | 22 | 150 | 0.0 | 0.0 | 0.00 | 0.00 | 0.00 | 88 | 1019.3 |
| 20260831003058 | 22 | 150 | 0.0 | 0.0 | 0.00 | 0.00 | 0.00 | 87 | 1019.2 |
| 20260831001542 | 22 | 150 | 0.0 | 0.0 | 0.00 | 0.00 | 0.00 | 86 | 1019.1 |
| 20260831000055 | 22 | 147 | 0.0 | 0.0 | 0.00 | 0.00 | 0.00 | 85 | 1019.0 |
| 20260830234529 | 22 | 60 | 0.0 | 3.2 | 0.00 | 0.00 | 0.00 | 84 | 1018.9 |
| 20260830233029 | 22 | 143 | 0.0 | 1.6 | 0.00 | 0.00 | 0.00 | 83 | 1018.9 |
| 20260830231528 | 22 | 92 | 0.0 | 3.2 | 0.00 | 0.00 | 0.00 | 83 | 1018.8 |
| 20260830230027 | 23 | 94 | 0.0 | 8.0 | 0.00 | 0.00 | 0.00 | 82 | 1018.9 |
| 20260830224527 | 23 | 294 | 0.0 | 3.2 | 0.00 | 0.00 | 0.00 | 82 | 1018.8 |
| 20260830223028 | 23 | 171 | 0.0 | 1.6 | 0.00 | 0.00 | 0.00 | 81 | 1018.9 |
| 20260830221525 | 23 | 140 | 0.0 | 4.8 | 0.00 | 0.00 | 0.00 | 79 | 1019.0 |
| 20260830220127 | 23 | 109 | 1.6 | 4.8 | 0.00 | 0.00 | 0.00 | 79 | 1018.9 |
| 20260830214515 | 23 | 201 | 0.0 | 6.4 | 0.00 | 0.00 | 0.00 | 78 | 1018.9 |
| 20260830213012 | 24 | 253 | 1.6 | 11.3 | 0.00 | 0.00 | 0.00 | 77 | 1018.9 |
| 20260830211511 | 24 | 175 | 0.0 | 9.7 | 0.00 | 0.00 | 0.00 | 76 | 1018.9 |
| 20260830210011 | 25 | 41 | 0.0 | 8.0 | 0.00 | 0.00 | 0.00 | 74 | 1019.0 |
| 20260830204508 | 25 | 249 | 0.0 | 6.4 | 0.00 | 0.00 | 0.00 | 73 | 1019.2 |
| 20260830203008 | 25 | 348 | 0.0 | 6.4 | 0.00 | 0.00 | 0.00 | 73 | 1019.2 |
| 20260830201507 | 25 | 271 | 0.0 | 4.8 | 0.00 | 0.00 | 0.00 | 71 | 1019.2 |
| 20260830200006 | 25 | 297 | 0.0 | 0.0 | 0.00 | 0.00 | 0.00 | 71 | 1019.3 |
| 20260830194505 | 26 | 323 | 0.0 | 6.4 | 0.00 | 0.00 | 0.00 | 70 | 1019.4 |
| 20260830193100 | 26 | 307 | 0.0 | 3.2 | 0.00 | 0.00 | 0.00 | 65 | 1019.5 |
| 20260830191544 | 26 | 146 | 0.0 | 9.7 | 0.00 | 0.00 | 0.00 | 65 | 1019.9 |
| 20260830190030 | 27 | 89 | 1.6 | 9.7 | 0.00 | 0.00 | 0.00 | 60 | 1020.2 |
| 20260830184533 | 26 | 82 | 3.2 | 11.3 | 0.00 | 0.00 | 0.00 | 61 | 1020.5 |
| 20260830183026 | 26 | 116 | 0.0 | 12.9 | 0.00 | 0.00 | 0.00 | 62 | 1020.6 |
| 20260830181524 | 26 | 152 | 1.6 | 12.9 | 0.00 | 0.00 | 0.00 | 61 | 1020.8 |
| 20260830180023 | 27 | 172 | 0.0 | 11.3 | 0.00 | 0.00 | 0.00 | 61 | 1020.8 |
| 20260830174523 | 27 | 201 | 1.6 | 11.3 | 0.00 | 0.00 | 0.00 | 57 | 1021.0 |
| 20260830173020 | 27 | 297 | 1.6 | 9.7 | 0.00 | 0.00 | 0.00 | 57 | 1021.2 |
| 20260830171520 | 27 | 130 | 3.2 | 16.1 | 0.00 | 0.00 | 0.00 | 57 | 1021.1 |
| 20260830170100 | 27 | 292 | 0.0 | 14.5 | 0.00 | 0.00 | 0.00 | 57 | 1021.4 |
| 20260830164559 | 27 | 170 | 1.6 | 8.0 | 0.00 | 0.00 | 0.00 | 59 | 1021.2 |
| 20260830163049 | 27 | 148 | 1.6 | 8.0 | 0.00 | 0.00 | 0.00 | 57 | 1021.5 |
| 20260830161543 | 26 | 302 | 0.0 | 8.0 | 0.00 | 0.00 | 0.00 | 59 | 1021.6 |
| 20260830160036 | 26 | 351 | 1.6 | 4.8 | 0.00 | 0.00 | 0.00 | 58 | 1021.7 |
| 20260830154535 | 25 | 104 | 3.2 | 9.7 | 0.00 | 0.00 | 0.00 | 60 | 1022.0 |
| 20260830153033 | 26 | 270 | 3.2 | 9.7 | 0.00 | 0.00 | 0.00 | 60 | 1022.5 |
| 20260830151531 | 25 | 135 | 0.0 | 8.0 | 0.00 | 0.00 | 0.00 | 62 | 1022.6 |
| 20260830150030 | 25 | 30 | 1.6 | 6.4 | 0.00 | 0.00 | 0.00 | 65 | 1022.7 |
| 20260830144541 | 25 | 243 | 3.2 | 11.3 | 0.00 | 0.00 | 0.00 | 66 | 1022.8 |
| 20260830143014 | 25 | 150 | 0.0 | 4.8 | 0.00 | 0.00 | 0.00 | 68 | 1022.9 |
| 20260830141503 | 24 | 86 | 0.0 | 4.8 | 0.00 | 0.00 | 0.00 | 68 | 1022.9 |
| 20260830140044 | 23 | 310 | 0.0 | 4.8 | 0.00 | 0.00 | 0.00 | 70 | 1023.0 |
| 20260830134544 | 23 | 326 | 0.0 | 6.4 | 0.00 | 0.00 | 0.00 | 71 | 1022.9 |
| 20260830133021 | 22 | 120 | 0.0 | 3.2 | 0.00 | 0.00 | 0.00 | 74 | 1023.0 |
| 20260830131520 | 22 | 122 | 0.0 | 4.8 | 0.00 | 0.00 | 0.00 | 73 | 1023.2 |
| 20260830130110 | 21 | 107 | 0.0 | 3.2 | 0.00 | 0.00 | 0.00 | 76 | 1023.3 |
| 20260830124558 | 21 | 64 | 0.0 | 1.6 | 0.00 | 0.00 | 0.00 | 77 | 1023.3 |
| 20260830123038 | 18 | 63 | 0.0 | 1.6 | 0.00 | 0.00 | 0.00 | 81 | 1023.3 |
| 20260830121531 | 18 | 267 | 0.0 | 0.0 | 0.00 | 0.00 | 0.00 | 84 | 1023.4 |
| 20260830120016 | 17 | 267 | 0.0 | 0.0 | 0.00 | 0.00 | 0.00 | 87 | 1023.7 |
| 20260830114511 | 16 | 267 | 0.0 | 0.0 | 0.00 | 0.00 | 0.00 | 89 | 1023.4 |
| 20260830113007 | 16 | 267 | 0.0 | 0.0 | 0.00 | 0.00 | 0.00 | 90 | 1023.4 |
| 20260830111505 | 15 | 267 | 0.0 | 0.0 | 0.00 | 0.00 | 0.00 | 90 | 1023.5 |
| 20260830110002 | 15 | 267 | 0.0 | 0.0 | 0.00 | 0.00 | 0.00 | 91 | 1023.5 |
| 20260830104600 | 15 | 267 | 0.0 | 0.0 | 0.00 | 0.00 | 0.00 | 91 | 1023.4 |
| 20260830103101 | 15 | 267 | 0.0 | 0.0 | 0.00 | 0.00 | 0.00 | 90 | 1023.4 |
| 20260830101559 | 15 | 267 | 0.0 | 0.0 | 0.00 | 0.00 | 0.00 | 90 | 1023.2 |
| 20260830100050 | 15 | 267 | 0.0 | 0.0 | 0.00 | 0.00 | 0.00 | 90 | 1023.4 |
| 20260830094539 | 15 | 267 | 0.0 | 0.0 | 0.00 | 0.00 | 0.00 | 91 | 1023.5 |
| 20260830093026 | 15 | 267 | 0.0 | 0.0 | 0.00 | 0.00 | 0.00 | 91 | 1023.5 |
| 20260830091533 | 15 | 267 | 0.0 | 0.0 | 0.00 | 0.00 | 0.00 | 91 | 1023.6 |
| 20260830090003 | 15 | 266 | 0.0 | 0.0 | 0.00 | 0.00 | 0.00 | 93 | 1023.5 |